Temperature
20 18 17 18 18 19 19 19 18 19 19 19 18 17 17 18 18 17 17 17 18 18 18 17 17 17 17 17 16 16 16 16 16 15 15 15 15 15 14 14 14 14 14 14
18 18 19 19 19 20 19 18 18 19 19 19 17 17 17 17 17 18 17 17 17 18 17 17 17 17 17 17 16 16 16 16 15 15 15 15 15 14 14 14 14 14 14 14
18 19 20 20 20 19 19 19 19 18 19 18 18 17 17 17 17 17 17 17 18 18 17 17 17 17 17 16 16 16 16 15 15 15 15 15 14 14 14 14 14 14 14 14
19 20 20 20 20 20 19 20 20 19 17 16 17 16 16 16 16 16 17 17 17 17 17 17 17 17 17 16 16 16 16 15 15 15 15 14 14 14 14 14 14 13 13 13
19 20 20 20 20 20 19 20 20 19 17 16 16 16 15 15 15 15 16 16 17 17 17 17 17 17 17 16 16 16 15 15 15 15 14 14 14 14 14 13 13 13 13 13
19 20 20 20 21 20 20 19 18 16 15 16 16 16 15 14 15 15 16 16 16 17 17 17 17 17 16 16 16 15 15 15 15 14 14 14 14 14 14 13 13 13 13 13
18 19 20 20 20 20 18 16 16 16 15 15 16 16 15 15 16 16 16 16 16 16 16 16 16 16 16 16 15 15 15 15 15 14 14 14 14 14 13 13 13 13 13 12
17 17 19 20 19 18 18 16 15 15 15 15 16 15 15 16 16 16 16 16 16 16 16 16 16 16 16 15 15 15 15 15 14 14 14 14 14 13 13 13 13 13 12 12
16 17 19 20 20 19 18 16 16 15 15 15 15 15 16 16 15 15 15 15 15 15 15 16 16 16 15 15 15 15 15 15 14 14 14 14 13 13 13 13 12 12 12 12
17 17 18 19 20 19 18 17 14 15 15 14 15 15 15 15 15 14 14 14 14 15 15 15 15 15 15 15 15 15 15 14 14 14 14 13 13 13 13 12 12 12 12 12
17 16 17 18 18 18 18 17 15 14 14 14 14 15 16 15 14 14 14 14 14 14 15 15 15 15 15 15 15 15 14 14 14 13 13 13 13 13 12 12 12 12 12 11
16 14 15 16 17 18 17 17 15 15 14 13 13 14 15 14 14 14 14 14 14 15 15 15 14 14 15 14 14 14 14 14 14 13 13 13 13 12 12 12 12 12 11 11
16 14 15 15 16 17 17 17 16 14 13 13 13 14 15 14 14 14 14 14 14 14 14 14 14 14 14 14 14 14 14 13 13 13 13 13 12 12 12 12 12 11 11 11
16 14 14 15 15 15 16 16 16 14 13 13 13 14 14 14 13 13 14 14 14 14 14 14 14 14 14 13 13 13 13 13 13 13 12 12 12 12 12 11 11 11 11 11
15 14 15 15 16 16 16 16 16 15 14 14 14 14 14 13 13 14 14 14 13 13 13 13 13 13 13 13 13 13 13 12 12 12 12 12 12 12 11 11 11 11 10 10
13 14 15 15 16 15 15 15 15 15 15 14 14 13 13 14 14 13 13 13 13 13 13 13 13 13 13 13 13 13 12 12 12 12 12 12 11 11 11 11 10 10 10 10
13 13 14 13 14 15 14 14 15 14 14 14 13 14 13 13 13 13 13 13 13 13 13 13 13 13 13 12 12 12 12 12 12 11 11 11 11 11 11 10 10 10 10 9
13 12 11 12 14 14 14 14 15 14 14 14 13 13 13 13 14 14 14 14 13 13 13 13 12 12 12 12 12 12 12 11 11 11 11 11 10 10 10 10 10 10 9 9
12 12 11 11 12 13 14 14 14 14 13 13 13 13 13 13 13 12 13 14 14 13 13 13 12 12 12 11 11 11 11 11 11 11 10 10 10 10 10 9 9 9 9 8
12 11 11 11 12 12 13 14 15 14 13 13 13 12 12 12 11 11 13 13 13 13 13 12 12 12 11 11 11 11 11 10 10 10 10 10 10 9 9 9 9 9 8 8
12 11 11 11 11 11 13 14 15 13 13 13 13 13 12 12 12 13 13 13 12 12 12 12 11 11 11 10 10 10 10 10 10 10 9 9 9 9 9 9 8 8 8 8
11 10 10 10 11 11 13 13 13 12 14 14 13 13 13 13 13 12 12 12 12 12 11 11 11 11 10 10 10 10 9 9 9 9 9 9 9 9 8 8 8 8 7 7
10 10 10 10 11 12 13 13 14 14 14 13 13 13 13 12 12 12 12 11 11 11 11 10 10 10 10 9 9 9 9 9 9 9 9 9 8 8 8 8 7 7 7 7
10 10 9 9 10 12 13 13 14 14 14 13 13 13 13 12 12 11 11 11 11 10 10 10 10 9 9 9 9 9 9 8 8 8 8 8 8 8 8 7 7 7 7 6
10 10 9 9 10 11 12 13 13 13 13 13 13 12 12 12 11 11 11 10 10 10 9 9 9 9 9 8 8 8 8 8 8 8 8 8 8 7 7 7 7 7 6 6
9 10 10 10 11 11 12 13 13 13 13 12 12 12 11 11 11 11 10 10 10 9 9 9 9 8 8 8 8 8 8 8 8 8 8 7 7 7 7 7 6 6 6 6
Wind_Speed
2 4 2 6 6 5 5 3 2 3 3 5 5 5 6 5 5 6 6 6 7 7 6 6 7 7 7 6 6 6 6 5 5 3 3 3 2 2 2 3 5 5 6 6
4 1 6 5 4 4 3 3 2 1 2 3 4 5 6 5 7 8 9 8 8 6 6 6 6 7 7 7 6 6 6 5 5 3 3 2 2 1 1 2 4 5 5 5
5 5 4 4 3 3 3 4 4 3 0 1 1 3 3 3 4 4 6 7 7 9 10 9 8 7 7 7 7 7 6 5 4 4 4 3 3 2 2 2 2 3 3 4
3 3 2 3 3 5 4 4 4 4 3 3 2 3 5 3 3 5 5 5 7 7 8 8 8 8 8 7 6 6 6 6 5 5 5 5 4 2 1 1 0 2 3 3
3 2 2 3 5 4 5 4 3 3 3 0 1 2 6 1 3 6 6 6 6 6 8 9 10 9 8 6 6 6 6 5 5 5 6 6 3 2 1 1 1 2 2 3
3 2 3 5 3 3 2 4 4 4 3 1 4 4 5 3 6 5 6 6 5 5 6 7 7 7 6 5 5 6 7 5 5 5 5 6 5 4 3 1 1 1 1 2
4 4 3 2 1 2 5 6 3 4 2 4 3 3 5 4 4 5 6 6 5 5 6 6 7 6 7 7 6 6 7 5 5 5 5 5 5 4 4 3 2 1 0 1
0 4 3 2 5 4 3 7 5 4 4 4 2 4 4 3 2 2 3 4 5 5 5 6 7 7 7 8 7 7 7 5 5 5 4 4 4 3 3 3 2 2 1 1
3 3 3 1 3 7 4 4 6 5 1 2 4 3 4 2 3 4 4 4 4 4 4 5 6 7 7 7 7 7 7 6 5 5 5 4 4 4 3 3 2 1 1 1
5 2 3 2 4 1 5 6 5 4 2 3 4 4 4 3 3 1 3 4 3 4 4 4 5 6 6 7 6 6 6 6 4 4 4 4 3 3 3 3 2 2 1 0
3 3 3 2 2 3 1 2 3 4 4 4 3 5 4 7 6 6 6 5 5 4 4 4 4 5 5 5 6 6 5 5 4 4 3 3 3 2 3 2 2 2 2 1
2 4 1 4 4 3 4 5 5 4 4 4 3 6 5 4 5 5 5 5 4 4 4 4 4 4 5 5 5 5 5 5 4 4 4 3 3 3 2 2 1 1 1 1
3 4 1 5 5 3 0 2 4 4 3 4 4 6 3 0 1 2 4 4 3 3 3 3 3 4 4 4 4 5 5 5 4 4 4 3 3 3 2 2 2 2 1 1
4 4 5 7 6 3 3 3 3 5 4 4 6 7 5 2 2 2 2 3 3 3 3 3 3 3 4 4 4 4 4 4 4 4 4 4 3 3 3 3 2 2 2 2
4 3 4 6 5 3 4 4 4 5 7 7 7 7 7 6 5 4 4 4 4 3 3 3 3 3 3 3 3 4 3 3 4 4 4 3 3 3 3 2 2 2 2 2
3 3 1 3 3 2 3 5 5 5 4 5 4 6 5 4 3 3 4 5 5 4 4 4 3 3 3 4 3 3 3 3 4 4 4 3 3 3 3 2 2 3 2 2
2 3 1 4 5 3 4 5 5 4 4 6 7 8 4 2 4 6 6 6 6 5 5 4 4 4 3 4 4 4 4 4 4 4 4 3 3 3 2 2 2 2 2 2
5 3 3 2 2 4 7 4 4 4 4 5 5 4 5 5 5 4 4 6 5 5 5 4 3 3 2 2 3 3 3 4 5 4 4 4 4 3 2 2 2 1 2 2
6 6 3 2 3 6 6 4 3 4 5 4 5 4 2 3 3 1 0 3 4 4 4 4 4 3 3 3 3 4 4 3 4 4 4 4 4 4 3 2 2 1 1 1
3 4 5 3 3 6 7 5 2 3 5 5 4 5 5 5 2 4 2 1 2 2 3 3 3 3 3 3 4 5 4 4 4 4 4 4 4 4 4 3 2 1 1 1
1 1 3 4 5 6 6 4 2 3 6 3 4 6 7 6 5 4 2 2 2 2 3 4 4 3 3 3 4 5 4 3 4 3 3 3 4 4 4 3 2 2 2 2
5 4 4 4 4 7 4 2 4 6 3 3 3 4 4 3 3 3 3 3 4 3 3 4 4 2 2 4 5 4 3 2 2 2 3 3 3 3 3 3 2 2 2 2
5 7 5 7 7 5 2 4 4 4 4 3 3 3 5 5 4 4 3 4 4 3 3 3 4 3 2 3 4 4 2 2 2 2 3 3 3 3 3 4 3 2 2 2
4 2 3 3 5 5 4 3 2 3 4 3 4 5 5 4 5 4 4 3 3 2 3 3 4 3 2 1 2 3 2 2 3 3 2 3 3 3 3 3 3 3 3 3
6 3 3 4 5 2 3 3 4 3 3 3 3 3 5 6 5 4 4 3 3 2 2 2 3 3 2 1 1 1 2 3 3 2 2 2 2 3 3 2 3 4 4 4
5 6 7 8 8 6 6 6 5 5 4 4 4 2 3 5 5 4 4 3 3 2 2 2 2 2 1 1 1 1 2 3 3 2 2 2 2 2 3 2 1 1 1 1
Wind_Direction
65 85 179 211 194 177 174 169 192 225 191 151 186 217 224 208 188 186 191 189 191 190 186 160 151 143 136 133 129 127 124 121 118 113 113 104 91 69 52 53 62 67 66 69
56 234 226 205 187 168 168 166 211 278 212 169 199 239 236 210 205 198 193 193 190 186 169 157 149 144 147 148 146 139 139 139 133 137 141 136 134 120 88 49 52 62 67 67
174 231 218 181 188 176 204 181 187 199 206 53 107 307 269 246 226 209 195 188 188 184 180 171 160 155 151 152 159 157 154 147 136 125 109 91 73 52 43 36 26 32 62 70
225 253 198 187 217 184 219 202 182 175 141 246 169 256 283 251 237 223 216 195 190 187 175 168 164 162 164 165 160 156 153 147 140 133 129 129 128 132 182 179 44 28 50 64
242 234 185 201 223 191 215 211 187 190 166 262 262 192 285 276 245 239 218 198 189 182 175 169 167 167 165 160 156 158 147 141 143 140 141 137 131 143 141 97 64 30 25 38
242 249 204 206 220 195 153 66 51 54 85 267 232 183 273 247 231 227 212 191 177 171 161 159 161 154 148 145 142 150 150 150 153 146 145 146 148 147 135 120 91 25 360 5
315 306 270 176 112 23 85 85 40 359 7 253 236 180 247 267 247 203 192 189 171 156 151 147 150 154 154 151 150 148 150 156 158 151 154 162 161 161 166 173 172 158 283 330
204 294 263 194 169 184 159 137 158 200 228 277 309 219 253 287 286 155 154 146 139 145 149 156 161 158 161 161 159 152 153 157 155 157 165 168 161 162 173 180 174 185 202 232
178 261 292 202 159 152 148 178 178 154 211 256 274 275 299 12 40 75 108 114 144 150 151 158 160 156 158 161 163 159 159 161 163 159 153 157 159 164 173 180 175 185 222 225
163 224 292 300 72 73 159 159 109 133 179 253 277 253 239 232 225 165 149 156 165 158 153 157 156 162 162 164 163 156 157 161 161 153 154 154 156 160 171 165 174 188 208 153
131 155 310 25 170 207 153 142 131 141 163 172 253 269 233 202 198 194 190 181 173 166 162 159 158 156 154 153 152 156 156 148 149 151 147 139 148 153 150 155 180 191 187 168
126 129 223 266 276 205 162 174 149 165 230 188 196 265 287 207 200 194 192 181 178 170 161 153 151 143 140 151 156 157 157 156 160 158 146 149 149 140 131 143 160 144 137 159
119 109 74 339 342 4 126 182 166 149 147 177 197 258 311 76 196 201 184 173 177 157 143 138 137 149 159 158 156 157 161 168 161 151 149 149 144 142 150 153 132 111 121 111
119 124 164 199 222 230 257 260 196 154 179 215 223 239 272 262 225 214 180 171 166 150 152 153 152 156 162 161 159 160 170 170 157 145 145 150 158 160 159 147 133 126 119 118
102 161 203 225 232 217 230 245 232 204 201 208 234 230 243 229 207 197 176 156 144 141 151 167 167 166 157 153 156 151 154 159 152 143 146 160 159 148 139 131 131 124 119 111
79 162 177 292 274 270 273 264 243 231 219 215 224 254 246 215 190 168 168 164 167 178 183 179 173 161 167 168 171 163 159 160 150 145 154 156 139 134 139 145 138 124 112 101
153 149 139 272 297 343 287 254 226 216 221 193 219 237 218 201 178 181 182 180 181 185 187 183 182 182 180 180 170 172 175 157 154 157 155 150 143 139 144 143 124 127 123 110
164 155 159 228 359 249 250 261 205 203 238 216 207 210 197 201 186 176 167 174 183 182 184 190 182 174 166 163 154 152 144 146 151 157 159 158 154 149 138 124 127 132 139 137
168 159 152 160 229 267 286 282 206 198 260 239 205 201 175 132 94 355 236 172 183 187 184 181 172 157 144 145 147 138 133 141 145 161 172 172 165 155 146 149 161 158 133 122
95 126 146 159 199 240 249 270 235 132 268 260 195 184 168 128 140 249 241 187 173 144 142 139 131 120 132 143 144 137 145 154 172 185 191 183 172 166 168 174 172 147 130 134
64 74 165 188 218 257 258 270 110 172 247 246 189 178 173 181 201 202 160 137 133 119 123 123 125 136 153 146 136 143 152 183 203 191 181 178 174 172 170 160 150 146 133 115
186 181 196 176 205 250 266 134 180 217 210 171 168 167 166 170 145 137 137 133 117 101 108 121 121 125 136 139 136 144 174 202 179 160 161 167 172 172 158 145 150 153 148 139
196 195 189 192 216 244 237 212 219 164 161 174 164 159 142 143 146 137 134 132 128 120 121 130 128 124 124 141 145 159 192 165 147 150 167 178 173 172 161 163 165 161 165 169
259 186 161 226 258 259 256 245 209 167 169 175 158 147 144 149 151 145 142 136 127 117 122 119 128 130 133 153 154 170 174 152 144 162 183 181 174 175 170 171 171 172 184 186
221 181 183 231 254 274 272 219 189 161 136 133 134 152 154 147 153 156 154 152 147 133 128 135 147 159 169 154 149 170 164 150 149 161 180 178 183 185 186 191 199 196 204 201
216 192 194 225 220 202 231 229 195 164 169 166 152 153 152 150 157 153 156 159 154 151 146 145 146 152 165 145 139 178 170 158 162 171 191 196 191 191 189 193 235 283 242 240
Height
1507 1513 1518 1516 1515 1516 1519 1523 1526 1523 1517 1521 1524 1525 1523 1522 1523 1523 1523 1525 1526 1527 1529 1531 1532 1533 1533 1534 1535 1536 1537 1537 1538 1538 1538 1538 1539 1539 1538 1538 1538 1537 1537 1536
1513 1516 1510 1509 1511 1514 1518 1523 1525 1522 1517 1520 1524 1524 1521 1521 1520 1520 1520 1522 1523 1526 1528 1529 1530 1531 1532 1533 1534 1535 1536 1536 1537 1537 1538 1538 1539 1539 1539 1538 1538 1537 1537 1536
1515 1512 1507 1509 1512 1516 1518 1521 1522 1523 1520 1520 1524 1528 1523 1519 1518 1519 1519 1519 1521 1523 1525 1526 1528 1530 1531 1532 1533 1534 1535 1536 1536 1537 1538 1538 1539 1539 1538 1538 1537 1537 1537 1536
1511 1507 1507 1510 1512 1513 1520 1513 1515 1518 1526 1532 1528 1540 1526 1520 1518 1517 1517 1517 1519 1520 1522 1524 1526 1528 1529 1530 1532 1533 1534 1535 1536 1536 1537 1537 1537 1537 1537 1537 1537 1537 1536 1536
1511 1507 1508 1511 1510 1509 1513 1509 1513 1516 1524 1531 1530 1537 1531 1521 1521 1517 1515 1515 1516 1517 1519 1521 1523 1525 1527 1529 1531 1532 1533 1534 1535 1536 1536 1536 1537 1537 1537 1537 1537 1536 1536 1535
1507 1504 1505 1506 1505 1506 1508 1512 1516 1523 1529 1540 1531 1537 1534 1525 1518 1514 1513 1513 1514 1515 1517 1520 1522 1524 1526 1528 1529 1531 1532 1533 1534 1535 1535 1535 1536 1536 1536 1536 1536 1535 1535 1534
1512 1507 1503 1503 1507 1508 1511 1525 1539 1541 1546 1543 1528 1532 1530 1517 1512 1510 1510 1511 1512 1514 1516 1518 1520 1522 1524 1526 1528 1529 1530 1531 1532 1533 1534 1535 1535 1535 1535 1535 1535 1534 1534 1533
1521 1520 1506 1503 1506 1512 1514 1523 1541 1548 1548 1541 1529 1531 1523 1513 1510 1508 1509 1510 1511 1512 1514 1516 1518 1520 1522 1524 1526 1527 1528 1530 1531 1532 1533 1533 1534 1534 1534 1534 1533 1533 1533 1532
1520 1518 1504 1501 1501 1506 1514 1521 1522 1534 1536 1541 1536 1527 1519 1512 1511 1509 1509 1510 1511 1511 1512 1514 1516 1518 1520 1522 1524 1525 1527 1528 1529 1530 1531 1532 1532 1533 1532 1532 1532 1532 1532 1531
1510 1517 1508 1503 1502 1504 1507 1513 1526 1533 1542 1546 1537 1530 1526 1516 1513 1511 1510 1510 1510 1511 1511 1512 1514 1516 1518 1520 1522 1524 1525 1527 1528 1529 1530 1530 1531 1531 1531 1531 1531 1530 1530 1530
1506 1516 1514 1508 1509 1511 1511 1514 1520 1530 1534 1543 1543 1533 1512 1511 1510 1509 1509 1509 1509 1510 1510 1511 1512 1514 1516 1518 1520 1522 1523 1525 1526 1527 1528 1528 1529 1529 1530 1529 1529 1529 1529 1528
1506 1516 1520 1513 1505 1503 1506 1510 1518 1530 1532 1533 1538 1532 1507 1506 1506 1507 1507 1508 1509 1509 1509 1510 1511 1513 1514 1516 1518 1519 1521 1522 1523 1525 1526 1526 1527 1527 1528 1528 1527 1527 1527 1526
1506 1516 1525 1523 1518 1509 1508 1508 1511 1519 1528 1533 1536 1528 1507 1506 1506 1507 1506 1507 1508 1508 1509 1509 1510 1512 1513 1514 1516 1518 1519 1520 1521 1522 1523 1524 1525 1525 1526 1526 1526 1525 1525 1524
1503 1514 1522 1526 1521 1513 1512 1509 1508 1516 1526 1528 1525 1518 1510 1507 1507 1506 1506 1506 1507 1507 1508 1508 1509 1510 1511 1513 1514 1515 1517 1518 1519 1520 1521 1522 1523 1523 1523 1524 1524 1523 1523 1522
1504 1513 1512 1511 1508 1507 1508 1507 1507 1510 1514 1519 1515 1513 1507 1505 1505 1504 1504 1505 1506 1507 1507 1507 1507 1508 1510 1511 1512 1513 1515 1516 1518 1518 1519 1520 1521 1521 1521 1522 1521 1521 1521 1520
1505 1511 1510 1510 1505 1505 1507 1505 1504 1505 1506 1508 1509 1508 1502 1502 1501 1502 1503 1503 1504 1505 1506 1506 1507 1507 1508 1509 1510 1511 1512 1514 1515 1516 1517 1517 1518 1519 1519 1519 1519 1519 1519 1518
1508 1511 1515 1517 1509 1506 1511 1504 1502 1503 1502 1503 1506 1503 1500 1500 1499 1499 1500 1501 1502 1503 1504 1504 1504 1505 1506 1507 1508 1509 1510 1511 1513 1514 1514 1515 1516 1516 1517 1517 1517 1516 1516 1516
1506 1511 1517 1519 1515 1520 1508 1497 1496 1498 1498 1497 1496 1496 1496 1496 1497 1497 1498 1499 1500 1501 1502 1502 1503 1503 1504 1505 1506 1507 1508 1509 1510 1511 1512 1513 1513 1514 1514 1514 1514 1514 1514 1514
1498 1506 1516 1521 1520 1514 1503 1496 1495 1497 1498 1494 1494 1494 1495 1495 1496 1497 1497 1498 1498 1499 1500 1500 1501 1502 1502 1503 1504 1505 1506 1507 1507 1508 1509 1510 1510 1511 1511 1512 1512 1512 1512 1512
1498 1501 1512 1518 1518 1517 1503 1493 1491 1495 1499 1492 1491 1492 1493 1494 1499 1497 1496 1496 1497 1497 1498 1499 1499 1500 1500 1501 1502 1502 1503 1504 1504 1505 1506 1507 1508 1509 1509 1509 1510 1510 1510 1510
1505 1507 1511 1515 1516 1509 1495 1490 1491 1502 1499 1490 1489 1489 1491 1491 1492 1493 1494 1495 1495 1496 1496 1497 1497 1498 1498 1499 1500 1500 1501 1502 1502 1503 1504 1505 1506 1506 1507 1507 1508 1508 1508 1508
1505 1509 1511 1513 1515 1508 1490 1490 1493 1492 1488 1488 1488 1488 1489 1489 1490 1491 1491 1492 1493 1494 1494 1495 1495 1496 1497 1497 1498 1498 1499 1500 1500 1501 1502 1502 1503 1504 1504 1505 1505 1505 1505 1505
1500 1499 1501 1502 1500 1490 1487 1487 1487 1486 1486 1487 1487 1487 1488 1489 1489 1489 1490 1491 1492 1492 1493 1493 1494 1495 1495 1496 1496 1497 1497 1498 1498 1499 1500 1500 1501 1501 1502 1502 1502 1502 1502 1502
1494 1491 1494 1495 1491 1487 1486 1486 1486 1485 1485 1486 1486 1487 1487 1488 1488 1489 1489 1490 1490 1491 1491 1492 1492 1493 1493 1494 1495 1495 1496 1497 1497 1497 1497 1497 1498 1498 1499 1499 1499 1499 1499 1499
1489 1489 1491 1492 1488 1486 1485 1484 1484 1484 1485 1485 1486 1486 1486 1487 1487 1488 1488 1489 1489 1490 1490 1491 1491 1491 1492 1492 1493 1494 1494 1495 1495 1495 1495 1495 1495 1496 1496 1496 1496 1497 1497 1497
1483 1484 1487 1486 1482 1483 1482 1482 1483 1483 1483 1484 1484 1484 1485 1485 1486 1486 1487 1488 1488 1489 1489 1489 1490 1490 1490 1491 1491 1492 1492 1493 1493 1493 1493 1493 1493 1493 1493 1493 1494 1494 1494 1495